BAW6R KMIA-EGLL

Flight info

Callsign BAW6R
Flight time N/A
Altitude 37000
Route ALTNN2 DUCEN Q87 NOWAE DCT BBOBO Q22 SYFER/N0479F390 Q22 FOXWD DCT MIILS N691A NEEKO/M083F400 NATV NETKI/N0483F410 DCT BOFUM Q37 MALUD Q38 NUGRA NUGRA2H
Aircraft A388/J-SDE1E2E3GHIJ3J4J5J6LM1M2OP2RWXYZ/LB1D1

Departure

Time 2026-05-07 10:23
Airport Miami International Airport (KMIA)

Arrival

Time N/A
Airport London Heathrow Airport (EGLL)
Time Latitude Longitude Altitude Speed Heading
2026-05-07 09:30 25.79416 -80.28353 20 ft 0 kts 323°
2026-05-07 10:11 25.79412 -80.28350 20 ft 2 kts 323°
2026-05-07 10:11 25.79396 -80.28337 25 ft 3 kts 323°
2026-05-07 10:12 25.79381 -80.28325 23 ft 3 kts 323°
2026-05-07 10:12 25.79365 -80.28312 23 ft 2 kts 323°
2026-05-07 10:12 25.79353 -80.28302 22 ft 3 kts 313°
2026-05-07 10:12 25.79343 -80.28285 24 ft 3 kts 275°
2026-05-07 10:13 25.79345 -80.28264 25 ft 3 kts 245°
2026-05-07 10:13 25.79353 -80.28247 25 ft 2 kts 245°
2026-05-07 10:13 25.79355 -80.28243 25 ft 1 kts 247°
2026-05-07 10:17 25.79354 -80.28246 22 ft 2 kts 247°
2026-05-07 10:17 25.79344 -80.28274 23 ft 6 kts 250°
2026-05-07 10:18 25.79333 -80.28333 23 ft 10 kts 266°
2026-05-07 10:18 25.79329 -80.28414 24 ft 12 kts 266°
2026-05-07 10:18 25.79322 -80.28521 20 ft 14 kts 266°
2026-05-07 10:18 25.79340 -80.28640 22 ft 18 kts 294°
2026-05-07 10:19 25.79405 -80.28774 24 ft 21 kts 300°
2026-05-07 10:19 25.79478 -80.28917 22 ft 23 kts 300°
2026-05-07 10:19 25.79532 -80.29029 22 ft 8 kts 282°
2026-05-07 10:19 25.79510 -80.29091 22 ft 10 kts 233°
2026-05-07 10:20 25.79508 -80.29160 23 ft 11 kts 297°
2026-05-07 10:20 25.79552 -80.29249 22 ft 15 kts 299°
2026-05-07 10:20 25.79611 -80.29366 21 ft 19 kts 300°
2026-05-07 10:20 25.79684 -80.29506 24 ft 22 kts 299°
2026-05-07 10:21 25.79765 -80.29665 21 ft 25 kts 299°
2026-05-07 10:21 25.79850 -80.29830 20 ft 21 kts 299°
2026-05-07 10:21 25.79925 -80.29978 20 ft 23 kts 299°
2026-05-07 10:21 25.79998 -80.30098 22 ft 18 kts 323°
2026-05-07 10:22 25.80065 -80.30099 20 ft 9 kts 58°
2026-05-07 10:22 25.80076 -80.30025 21 ft 16 kts 90°
2026-05-07 10:22 25.80090 -80.29664 19 ft 88 kts 88°
2026-05-07 10:22 25.80127 -80.28710 28 ft 152 kts 89°
2026-05-07 10:23 25.80184 -80.27492 621 ft 158 kts 87°
2026-05-07 10:23 25.80251 -80.26288 1408 ft 157 kts 88°
2026-05-07 10:23 25.80313 -80.25041 1963 ft 170 kts 89°
2026-05-07 10:23 25.80369 -80.23684 2254 ft 185 kts 89°
2026-05-07 10:24 25.80425 -80.22217 2404 ft 201 kts 88°
2026-05-07 10:24 25.80486 -80.20603 2545 ft 224 kts 88°
2026-05-07 10:24 25.80649 -80.18803 2821 ft 247 kts 73°
2026-05-07 10:24 25.81559 -80.17108 3188 ft 266 kts 43°
2026-05-07 10:25 25.83158 -80.16075 3873 ft 269 kts 15°
2026-05-07 10:25 25.85023 -80.15874 4608 ft 272 kts
2026-05-07 10:25 25.86917 -80.15826 5351 ft 275 kts
2026-05-07 10:25 25.88841 -80.15818 6080 ft 278 kts 355°
2026-05-07 10:26 25.90724 -80.16170 6768 ft 280 kts 344°
2026-05-07 10:26 25.92579 -80.16837 7490 ft 279 kts 342°
2026-05-07 10:26 25.94413 -80.17491 8301 ft 277 kts 343°
2026-05-07 10:26 25.96269 -80.18135 8917 ft 281 kts 343°
2026-05-07 10:27 25.98151 -80.18778 9567 ft 283 kts 346°
2026-05-07 10:27 25.99419 -80.19085 10057 ft 282 kts 353°
2026-05-07 10:27 26.01400 -80.19303 10324 ft 297 kts 356°
2026-05-07 10:27 26.04255 -80.19573 10551 ft 320 kts 356°
2026-05-07 10:28 26.05761 -80.19724 10657 ft 330 kts 355°
2026-05-07 10:28 26.08833 -80.20041 11286 ft 336 kts 355°
2026-05-07 10:28 26.10402 -80.20205 11684 ft 337 kts 355°
2026-05-07 10:28 26.12749 -80.20448 12248 ft 339 kts 356°
2026-05-07 10:29 26.15108 -80.20693 12831 ft 341 kts 356°
2026-05-07 10:29 26.17478 -80.20937 13436 ft 342 kts 356°
2026-05-07 10:29 26.19777 -80.21175 13976 ft 344 kts 356°
2026-05-07 10:30 26.24620 -80.21621 14946 ft 349 kts 356°
2026-05-07 10:30 26.27055 -80.21832 15419 ft 352 kts 356°
2026-05-07 10:30 26.29477 -80.22044 15873 ft 356 kts 355°
2026-05-07 10:30 26.31861 -80.22256 16354 ft 358 kts 355°
2026-05-07 10:31 26.34359 -80.22479 16808 ft 361 kts 355°
2026-05-07 10:31 26.36876 -80.22705 17259 ft 364 kts 355°
2026-05-07 10:31 26.39418 -80.22939 17721 ft 367 kts 354°
2026-05-07 10:31 26.41970 -80.23200 18189 ft 370 kts 353°
2026-05-07 10:32 26.44541 -80.23472 18588 ft 373 kts 353°
2026-05-07 10:32 26.47126 -80.23744 19010 ft 373 kts 353°
2026-05-07 10:32 26.49719 -80.24014 19424 ft 375 kts 353°
2026-05-07 10:32 26.52321 -80.24283 19835 ft 376 kts 353°
2026-05-07 10:33 26.54938 -80.24553 20223 ft 378 kts 352°
2026-05-07 10:33 26.57554 -80.24897 20613 ft 379 kts 349°
2026-05-07 10:33 26.60167 -80.25345 21007 ft 381 kts 349°
2026-05-07 10:33 26.62786 -80.25784 21400 ft 382 kts 349°
2026-05-07 10:34 26.65426 -80.26222 21795 ft 384 kts 349°
2026-05-07 10:34 26.68072 -80.26661 22179 ft 385 kts 348°
2026-05-07 10:34 26.70670 -80.27218 22562 ft 384 kts 342°
2026-05-07 10:34 26.73210 -80.28129 22929 ft 384 kts 336°
2026-05-07 10:35 26.75710 -80.29206 23304 ft 386 kts 336°
2026-05-07 10:35 26.78219 -80.30258 23690 ft 387 kts 337°
2026-05-07 10:35 26.80749 -80.31310 23981 ft 389 kts 337°
2026-05-07 10:35 26.83288 -80.32368 24266 ft 391 kts 337°
2026-05-07 10:36 26.85840 -80.33432 24618 ft 391 kts 336°
2026-05-07 10:36 26.88394 -80.34500 24912 ft 393 kts 336°
2026-05-07 10:36 26.90963 -80.35576 25201 ft 395 kts 336°
2026-05-07 10:36 26.93550 -80.36661 25508 ft 397 kts 336°
2026-05-07 10:37 26.96146 -80.37738 25802 ft 399 kts 336°
2026-05-07 10:37 26.98766 -80.38793 26117 ft 401 kts 337°
2026-05-07 10:37 27.01405 -80.39848 26414 ft 403 kts 337°
2026-05-07 10:37 27.04062 -80.40912 26735 ft 405 kts 337°
2026-05-07 10:38 27.06692 -80.41969 27055 ft 408 kts 336°
2026-05-07 10:38 27.09366 -80.43048 27402 ft 410 kts 336°
2026-05-07 10:38 27.12043 -80.44177 27737 ft 411 kts 335°
2026-05-07 10:38 27.14704 -80.45363 28077 ft 414 kts 335°
2026-05-07 10:39 27.17389 -80.46569 28506 ft 415 kts 334°
2026-05-07 10:39 27.20081 -80.47774 28880 ft 418 kts 334°
2026-05-07 10:39 27.22800 -80.48984 29253 ft 421 kts 334°
2026-05-07 10:39 27.25531 -80.50194 29640 ft 423 kts 334°
2026-05-07 10:40 27.28277 -80.51410 30028 ft 426 kts 334°
2026-05-07 10:40 27.31046 -80.52635 30382 ft 429 kts 334°
2026-05-07 10:40 27.33825 -80.53865 30761 ft 430 kts 334°
2026-05-07 10:40 27.36626 -80.55105 31066 ft 434 kts 334°
2026-05-07 10:41 27.39471 -80.56309 31439 ft 437 kts 336°
2026-05-07 10:41 27.42341 -80.57436 31820 ft 439 kts 337°
2026-05-07 10:41 27.45237 -80.58557 32168 ft 441 kts 336°
2026-05-07 10:41 27.48142 -80.59690 32512 ft 442 kts 336°
2026-05-07 10:42 27.51052 -80.60835 32856 ft 444 kts 336°
2026-05-07 10:42 27.53975 -80.61994 33201 ft 446 kts 336°
2026-05-07 10:42 27.56871 -80.63146 33533 ft 448 kts 336°
2026-05-07 10:42 27.59824 -80.64322 33860 ft 450 kts 336°
2026-05-07 10:43 27.62792 -80.65506 34189 ft 452 kts 336°
2026-05-07 10:43 27.65765 -80.66692 34486 ft 454 kts 336°
2026-05-07 10:43 27.68754 -80.67885 34791 ft 456 kts 336°
2026-05-07 10:43 27.71747 -80.69080 35145 ft 456 kts 336°
2026-05-07 10:44 27.74734 -80.70272 35561 ft 455 kts 336°
2026-05-07 10:44 27.77711 -80.71461 36064 ft 452 kts 336°
2026-05-07 10:44 27.80668 -80.72643 36500 ft 450 kts 336°
2026-05-07 10:44 27.83621 -80.73825 36880 ft 449 kts 335°
2026-05-07 10:45 27.86579 -80.75011 37091 ft 453 kts 335°
2026-05-07 10:45 27.89569 -80.76211 37047 ft 454 kts 335°
2026-05-07 10:45 27.95501 -80.78588 37048 ft 452 kts 335°
2026-05-07 10:46 28.01443 -80.80975 37053 ft 453 kts 335°
2026-05-07 10:46 28.07375 -80.83359 37069 ft 452 kts 335°
2026-05-07 10:47 28.13245 -80.85721 37051 ft 450 kts 335°
2026-05-07 10:47 28.19135 -80.88094 37040 ft 448 kts 335°
2026-05-07 10:48 28.25000 -80.90460 37033 ft 447 kts 335°
2026-05-07 10:48 28.30860 -80.92827 37020 ft 446 kts 335°
2026-05-07 10:49 28.36715 -80.95196 37089 ft 451 kts 335°
2026-05-07 10:49 28.42623 -80.97588 37073 ft 451 kts 335°
2026-05-07 10:50 28.48545 -80.99988 37074 ft 451 kts 335°
2026-05-07 10:50 28.54457 -81.02387 37069 ft 451 kts 335°
2026-05-07 10:51 28.60368 -81.04788 37066 ft 451 kts 335°
2026-05-07 10:51 28.66249 -81.07181 37088 ft 452 kts 335°
2026-05-07 10:52 28.72181 -81.09596 37069 ft 452 kts 334°
2026-05-07 10:52 28.78104 -81.12011 37066 ft 451 kts 334°
2026-05-07 10:53 28.84015 -81.14424 37069 ft 451 kts 334°
2026-05-07 10:53 28.89880 -81.16821 37064 ft 450 kts 334°
2026-05-07 10:54 28.95773 -81.19233 37060 ft 449 kts 334°
2026-05-07 10:54 29.01659 -81.21645 37064 ft 449 kts 334°
2026-05-07 10:55 29.07531 -81.24054 37059 ft 448 kts 334°
2026-05-07 10:55 29.13399 -81.26464 37056 ft 448 kts 334°
2026-05-07 10:56 29.19265 -81.28876 37040 ft 448 kts 334°
2026-05-07 10:56 29.25147 -81.31152 37042 ft 452 kts 339°
2026-05-07 10:57 29.31396 -81.32466 37058 ft 462 kts 347°
2026-05-07 10:57 29.37859 -81.32889 37061 ft 465 kts 349°
2026-05-07 10:58 29.44330 -81.33289 37067 ft 466 kts 349°
2026-05-07 10:58 29.50808 -81.33680 37069 ft 466 kts 349°
2026-05-07 10:59 29.57292 -81.34063 37072 ft 467 kts 349°
2026-05-07 10:59 29.63773 -81.34446 37070 ft 466 kts 349°
2026-05-07 11:00 29.70254 -81.34830 37063 ft 466 kts 349°
2026-05-07 11:00 29.76726 -81.35213 37065 ft 466 kts 349°
2026-05-07 11:01 29.83206 -81.35598 37078 ft 466 kts 349°
2026-05-07 11:01 29.89681 -81.35983 37055 ft 466 kts 349°
2026-05-07 11:02 29.96158 -81.36368 37052 ft 466 kts 349°
2026-05-07 11:02 30.02632 -81.36753 37053 ft 466 kts 349°
2026-05-07 11:03 30.09074 -81.37137 37051 ft 466 kts 349°
2026-05-07 11:03 30.15547 -81.37524 37046 ft 466 kts 348°
2026-05-07 11:04 30.22024 -81.37912 37048 ft 466 kts 348°
2026-05-07 11:04 30.28508 -81.38300 37036 ft 466 kts 348°
2026-05-07 11:05 30.34994 -81.38689 37038 ft 467 kts 348°
2026-05-07 11:05 30.41480 -81.39078 37044 ft 466 kts 348°
2026-05-07 11:06 30.47961 -81.39465 37050 ft 467 kts 349°
2026-05-07 11:06 30.54462 -81.39805 37034 ft 467 kts 349°
2026-05-07 11:07 30.60965 -81.40142 37036 ft 467 kts 349°
2026-05-07 11:07 30.67454 -81.40484 37044 ft 467 kts 349°
2026-05-07 11:08 30.73916 -81.40827 37037 ft 468 kts 349°
2026-05-07 11:08 30.80412 -81.41172 37034 ft 468 kts 349°
2026-05-07 11:09 30.86919 -81.41518 37038 ft 468 kts 349°
2026-05-07 11:09 30.93424 -81.41864 37030 ft 468 kts 349°
2026-05-07 11:10 30.99928 -81.42211 37035 ft 468 kts 348°
2026-05-07 11:10 31.06441 -81.42559 37032 ft 468 kts 348°
2026-05-07 11:11 31.12946 -81.42907 37027 ft 468 kts 348°
2026-05-07 11:11 31.19460 -81.43226 37024 ft 471 kts 351°
2026-05-07 11:12 31.26075 -81.42328 37025 ft 489 kts
2026-05-07 11:12 31.32591 -81.39580 37026 ft 507 kts 16°
2026-05-07 11:13 31.38983 -81.36100 37028 ft 506 kts 15°
2026-05-07 11:13 31.45345 -81.32664 37031 ft 507 kts 15°
2026-05-07 11:14 31.51751 -81.29187 37042 ft 508 kts 15°
2026-05-07 11:14 31.58175 -81.25689 37052 ft 508 kts 15°
2026-05-07 11:15 31.64584 -81.22193 37046 ft 508 kts 15°
2026-05-07 11:15 31.70981 -81.18699 37027 ft 507 kts 15°
2026-05-07 11:16 31.77369 -81.15205 37020 ft 506 kts 15°
2026-05-07 11:16 31.83747 -81.11712 36999 ft 505 kts 15°
2026-05-07 11:17 31.89047 -81.08804 36990 ft 505 kts 15°
2026-05-07 11:17 31.95418 -81.05304 36983 ft 505 kts 15°
2026-05-07 11:18 32.01785 -81.01798 36983 ft 505 kts 15°
2026-05-07 11:18 32.08138 -80.98245 36995 ft 506 kts 15°
2026-05-07 11:19 32.14496 -80.94678 37006 ft 506 kts 15°
2026-05-07 11:19 32.20858 -80.91109 37036 ft 506 kts 15°
2026-05-07 11:20 32.27149 -80.87576 37056 ft 506 kts 15°
2026-05-07 11:20 32.33584 -80.83956 37057 ft 506 kts 15°
2026-05-07 11:21 32.39936 -80.80378 37026 ft 505 kts 15°
2026-05-07 11:21 32.46269 -80.76804 37019 ft 504 kts 15°
2026-05-07 11:22 32.52596 -80.73229 37013 ft 504 kts 15°
2026-05-07 11:22 32.58916 -80.69652 37017 ft 503 kts 14°
2026-05-07 11:23 32.65186 -80.66098 37021 ft 503 kts 15°
2026-05-07 11:23 32.71518 -80.62505 37008 ft 503 kts 15°
2026-05-07 11:24 32.77820 -80.58796 37012 ft 505 kts 16°
2026-05-07 11:24 32.84104 -80.55033 37011 ft 506 kts 15°
2026-05-07 11:25 32.90397 -80.51280 37024 ft 506 kts 15°
2026-05-07 11:25 32.96686 -80.47532 37022 ft 505 kts 15°
2026-05-07 11:26 33.02987 -80.43771 37010 ft 505 kts 15°
2026-05-07 11:26 33.09220 -80.40046 37002 ft 504 kts 15°
2026-05-07 11:27 33.15488 -80.36293 36996 ft 504 kts 15°
2026-05-07 11:27 33.21752 -80.32536 36995 ft 503 kts 15°
2026-05-07 11:28 33.28012 -80.28777 36991 ft 503 kts 15°
2026-05-07 11:28 33.34279 -80.25008 36984 ft 504 kts 15°
2026-05-07 11:29 33.40551 -80.21229 36977 ft 505 kts 15°
2026-05-07 11:29 33.46831 -80.17438 36997 ft 506 kts 15°
2026-05-07 11:30 33.53118 -80.13636 37004 ft 506 kts 15°
2026-05-07 11:30 33.59406 -80.09829 36993 ft 507 kts 15°
2026-05-07 11:31 33.65702 -80.06011 36981 ft 507 kts 15°
2026-05-07 11:31 33.71942 -80.02220 36983 ft 507 kts 15°
2026-05-07 11:32 33.81383 -79.96474 37017 ft 507 kts 15°
2026-05-07 11:33 33.87678 -79.92636 36984 ft 508 kts 15°
2026-05-07 11:33 33.93973 -79.88790 36985 ft 507 kts 15°
2026-05-07 11:34 34.00270 -79.84936 36989 ft 507 kts 15°
2026-05-07 11:34 34.06563 -79.81078 37009 ft 508 kts 15°
2026-05-07 11:35 34.12863 -79.77211 37008 ft 507 kts 15°
2026-05-07 11:35 34.19142 -79.73348 37002 ft 506 kts 15°
2026-05-07 11:36 34.25405 -79.69490 37000 ft 505 kts 15°
2026-05-07 11:36 34.31638 -79.65643 36986 ft 506 kts 15°
2026-05-07 11:37 34.37939 -79.61750 36980 ft 505 kts 15°
2026-05-07 11:37 34.44164 -79.57895 36975 ft 505 kts 15°
2026-05-07 11:38 34.50433 -79.54007 36972 ft 505 kts 15°
2026-05-07 11:38 34.56689 -79.50111 36961 ft 508 kts 16°
2026-05-07 11:39 34.62901 -79.45931 36974 ft 511 kts 17°
2026-05-07 11:39 34.69104 -79.41702 36978 ft 511 kts 17°
2026-05-07 11:40 34.75304 -79.37500 36992 ft 510 kts 17°
2026-05-07 11:40 34.81512 -79.33296 36978 ft 511 kts 17°
2026-05-07 11:41 34.87716 -79.29089 36980 ft 511 kts 17°
2026-05-07 11:41 34.93892 -79.24892 36976 ft 511 kts 17°
2026-05-07 11:42 35.00107 -79.20662 36950 ft 511 kts 17°
2026-05-07 11:42 35.06331 -79.16419 36943 ft 512 kts 17°
2026-05-07 11:43 35.12562 -79.12162 36942 ft 513 kts 17°
2026-05-07 11:43 35.18775 -79.07910 36949 ft 513 kts 17°
2026-05-07 11:44 35.25012 -79.03634 36967 ft 512 kts 17°
2026-05-07 11:44 35.31188 -78.99393 36954 ft 512 kts 17°
2026-05-07 11:45 35.37392 -78.95124 36950 ft 512 kts 17°
2026-05-07 11:45 35.43595 -78.90850 36948 ft 511 kts 17°
2026-05-07 11:46 35.49804 -78.86563 36946 ft 511 kts 17°
2026-05-07 11:46 35.55997 -78.82280 36941 ft 511 kts 17°
2026-05-07 11:47 35.62205 -78.77979 36936 ft 511 kts 17°
2026-05-07 11:47 35.68366 -78.73702 36950 ft 511 kts 17°
2026-05-07 11:48 35.74567 -78.69392 36914 ft 513 kts 17°
2026-05-07 11:48 35.80770 -78.65068 36962 ft 511 kts 17°
2026-05-07 11:49 35.86958 -78.60750 36958 ft 511 kts 17°
2026-05-07 11:49 35.93141 -78.56427 36946 ft 510 kts 17°
2026-05-07 11:50 35.99315 -78.52104 36931 ft 511 kts 17°
2026-05-07 11:50 36.05506 -78.47761 36929 ft 511 kts 17°
2026-05-07 11:51 36.11699 -78.43407 36937 ft 512 kts 17°
2026-05-07 11:51 36.17899 -78.39040 36950 ft 513 kts 17°
2026-05-07 11:52 36.24077 -78.34682 36951 ft 515 kts 17°
2026-05-07 11:52 36.30315 -78.30271 36955 ft 516 kts 17°
2026-05-07 11:53 36.36549 -78.25855 36956 ft 516 kts 17°
2026-05-07 11:53 36.42633 -78.20920 36944 ft 525 kts 21°
2026-05-07 11:54 36.48702 -78.15868 36940 ft 525 kts 21°
2026-05-07 11:54 36.54772 -78.10810 36938 ft 525 kts 21°
2026-05-07 11:55 36.60834 -78.05738 36939 ft 525 kts 21°
2026-05-07 11:55 36.66909 -78.00646 36979 ft 527 kts 21°
2026-05-07 11:56 36.72949 -77.95570 36981 ft 528 kts 22°
2026-05-07 11:56 36.79016 -77.90459 37005 ft 526 kts 22°
2026-05-07 11:57 36.85069 -77.85353 36976 ft 524 kts 22°
2026-05-07 11:57 36.91108 -77.80251 36941 ft 524 kts 22°
2026-05-07 11:58 36.97138 -77.75145 36931 ft 523 kts 22°
2026-05-07 11:58 37.03165 -77.70032 36918 ft 523 kts 22°
2026-05-07 11:59 37.09185 -77.64916 36909 ft 524 kts 22°
2026-05-07 11:59 37.15221 -77.59778 36918 ft 525 kts 22°
2026-05-07 12:00 37.21258 -77.54624 36948 ft 524 kts 22°
2026-05-07 12:00 37.27284 -77.49469 36935 ft 524 kts 22°
2026-05-07 12:01 37.33319 -77.44302 36912 ft 525 kts 22°
2026-05-07 12:01 37.39353 -77.39121 36914 ft 525 kts 22°
2026-05-07 12:02 37.45386 -77.33931 36907 ft 526 kts 22°
2026-05-07 12:02 37.51361 -77.28783 36939 ft 526 kts 22°
2026-05-07 12:03 37.57422 -77.23551 36891 ft 529 kts 22°
2026-05-07 12:03 37.63502 -77.18287 36920 ft 528 kts 23°
2026-05-07 12:04 37.68501 -77.13959 36920 ft 527 kts 21°
2026-05-07 12:04 37.71618 -77.11634 36920 ft 516 kts 16°
2026-05-07 12:04 37.74785 -77.09476 36916 ft 517 kts 16°
2026-05-07 12:05 37.81101 -77.05114 36913 ft 517 kts 17°
2026-05-07 12:05 37.87411 -77.00737 36913 ft 517 kts 17°
2026-05-07 12:06 37.93721 -76.96355 36939 ft 517 kts 16°
2026-05-07 12:06 38.00043 -76.91959 36891 ft 518 kts 16°
2026-05-07 12:07 38.06351 -76.87565 37378 ft 520 kts 16°
2026-05-07 12:07 38.09509 -76.85356 37896 ft 516 kts 16°
2026-05-07 12:07 38.12640 -76.83160 38512 ft 511 kts 16°
2026-05-07 12:07 38.15745 -76.80987 38853 ft 511 kts 15°
2026-05-07 12:08 38.18883 -76.78799 38890 ft 515 kts 16°
2026-05-07 12:08 38.25007 -76.74100 38881 ft 523 kts 23°
2026-05-07 12:08 38.27912 -76.71221 38877 ft 534 kts 29°
2026-05-07 12:09 38.30729 -76.68137 38875 ft 534 kts 28°
2026-05-07 12:09 38.36407 -76.62020 38910 ft 535 kts 28°
2026-05-07 12:10 38.42110 -76.55866 38880 ft 537 kts 28°
2026-05-07 12:10 38.47815 -76.49727 38858 ft 536 kts 28°
2026-05-07 12:11 38.53480 -76.43652 38894 ft 535 kts 28°
2026-05-07 12:11 38.59183 -76.37518 38875 ft 536 kts 28°
2026-05-07 12:12 38.64884 -76.31366 38880 ft 536 kts 28°
2026-05-07 12:12 38.70590 -76.25195 38875 ft 537 kts 28°
2026-05-07 12:13 38.76290 -76.19016 38910 ft 537 kts 28°
2026-05-07 12:13 38.82019 -76.12796 38849 ft 539 kts 28°
2026-05-07 12:14 38.87741 -76.06566 38887 ft 540 kts 28°
2026-05-07 12:14 38.93433 -76.00356 38885 ft 541 kts 28°
2026-05-07 12:15 38.99138 -75.93996 38873 ft 547 kts 31°
2026-05-07 12:15 39.04704 -75.87283 38869 ft 548 kts 31°
2026-05-07 12:16 39.10349 -75.80694 38867 ft 547 kts 30°
2026-05-07 12:16 39.16003 -75.74140 38899 ft 547 kts 30°
2026-05-07 12:17 39.21662 -75.67525 38866 ft 549 kts 30°
2026-05-07 12:17 39.27309 -75.60893 38858 ft 549 kts 30°
2026-05-07 12:18 39.32921 -75.54286 38861 ft 549 kts 30°
2026-05-07 12:18 39.38570 -75.47623 38855 ft 551 kts 30°
2026-05-07 12:19 39.44233 -75.40927 38842 ft 550 kts 31°
2026-05-07 12:19 39.49887 -75.34223 38870 ft 550 kts 31°
2026-05-07 12:20 39.55487 -75.27571 38862 ft 551 kts 30°
2026-05-07 12:20 39.61151 -75.20829 38858 ft 551 kts 30°
2026-05-07 12:21 39.66757 -75.14138 38845 ft 550 kts 31°
2026-05-07 12:21 39.72379 -75.07414 38842 ft 550 kts 31°
2026-05-07 12:22 39.78011 -75.00659 38847 ft 549 kts 31°
2026-05-07 12:22 39.83584 -74.93963 38843 ft 548 kts 31°
2026-05-07 12:23 39.89197 -74.87202 38845 ft 548 kts 31°
2026-05-07 12:23 39.94735 -74.80519 38845 ft 549 kts 31°
2026-05-07 12:24 40.00331 -74.73747 38844 ft 549 kts 31°
2026-05-07 12:24 40.05922 -74.66965 38845 ft 550 kts 31°
2026-05-07 12:25 40.11550 -74.60123 38846 ft 551 kts 31°
2026-05-07 12:25 40.17135 -74.53317 38833 ft 552 kts 31°
2026-05-07 12:26 40.22854 -74.46700 38839 ft 544 kts 26°
2026-05-07 12:26 40.28727 -74.40460 38903 ft 544 kts 27°
2026-05-07 12:27 40.34649 -74.34131 38837 ft 545 kts 27°
2026-05-07 12:27 40.40473 -74.27882 38844 ft 545 kts 27°
2026-05-07 12:28 40.46340 -74.21576 38845 ft 545 kts 27°
2026-05-07 12:28 40.52204 -74.15257 38847 ft 545 kts 27°
2026-05-07 12:29 40.58058 -74.08934 38845 ft 544 kts 27°
2026-05-07 12:29 40.63905 -74.02604 38849 ft 544 kts 27°
2026-05-07 12:30 40.69751 -73.96262 38848 ft 545 kts 28°
2026-05-07 12:30 40.75593 -73.89907 38826 ft 544 kts 28°
2026-05-07 12:31 40.81433 -73.83541 38816 ft 544 kts 28°
2026-05-07 12:31 40.86957 -73.76477 38821 ft 564 kts 40°
2026-05-07 12:32 40.91665 -73.68033 38821 ft 573 kts 46°
2026-05-07 12:32 40.96251 -73.59425 38833 ft 572 kts 46°
2026-05-07 12:33 41.03112 -73.46487 38830 ft 573 kts 46°
2026-05-07 12:33 41.07673 -73.37829 38834 ft 573 kts 47°
2026-05-07 12:34 41.12230 -73.29153 38812 ft 573 kts 47°
2026-05-07 12:34 41.16770 -73.20484 38900 ft 572 kts 47°
2026-05-07 12:35 41.21278 -73.11855 38840 ft 573 kts 47°
2026-05-07 12:35 41.25818 -73.03138 38845 ft 573 kts 47°
2026-05-07 12:36 41.30222 -72.94285 38806 ft 578 kts 53°
2026-05-07 12:36 41.34321 -72.85113 38843 ft 577 kts 52°
2026-05-07 12:37 41.38447 -72.75941 38838 ft 577 kts 52°
2026-05-07 12:37 41.42556 -72.66755 38847 ft 577 kts 52°
2026-05-07 12:38 41.46651 -72.57560 38843 ft 576 kts 52°
2026-05-07 12:38 41.50740 -72.48350 38835 ft 576 kts 52°
2026-05-07 12:39 41.54817 -72.39141 38831 ft 576 kts 53°
2026-05-07 12:39 41.58884 -72.29925 38832 ft 576 kts 53°
2026-05-07 12:40 41.62944 -72.20698 38875 ft 575 kts 53°
2026-05-07 12:40 41.66991 -72.11472 38829 ft 575 kts 53°
2026-05-07 12:41 41.71023 -72.02250 38825 ft 574 kts 53°
2026-05-07 12:41 41.75050 -71.93011 38828 ft 574 kts 53°
2026-05-07 12:42 41.79297 -71.84042 38846 ft 563 kts 43°
2026-05-07 12:42 41.84753 -71.76894 38837 ft 542 kts 27°
2026-05-07 12:43 41.90974 -71.71447 38833 ft 533 kts 22°
2026-05-07 12:43 41.97232 -71.66109 38822 ft 535 kts 22°
2026-05-07 12:44 42.03522 -71.60744 38821 ft 535 kts 22°
2026-05-07 12:44 42.09815 -71.55374 38809 ft 536 kts 22°
2026-05-07 12:45 42.16110 -71.49992 38809 ft 536 kts 22°
2026-05-07 12:45 42.22411 -71.44587 38807 ft 537 kts 23°
2026-05-07 12:46 42.28719 -71.39163 38801 ft 538 kts 23°
2026-05-07 12:46 42.35041 -71.33715 38785 ft 539 kts 24°
2026-05-07 12:47 42.40292 -71.29178 38785 ft 539 kts 24°
2026-05-07 12:47 42.46616 -71.23701 38814 ft 540 kts 24°
2026-05-07 12:48 42.54021 -71.17274 38807 ft 541 kts 24°
2026-05-07 12:48 42.59287 -71.12690 38806 ft 541 kts 24°
2026-05-07 12:49 42.66644 -71.06274 38799 ft 542 kts 25°
2026-05-07 12:49 42.71960 -71.01625 38797 ft 542 kts 25°
2026-05-07 12:50 42.79326 -70.95168 38786 ft 542 kts 25°
2026-05-07 12:50 42.85662 -70.89599 38782 ft 542 kts 25°
2026-05-07 12:51 42.91996 -70.84016 38770 ft 542 kts 25°
2026-05-07 12:51 42.97300 -70.79332 38766 ft 542 kts 25°
2026-05-07 12:52 43.03595 -70.73760 38766 ft 542 kts 26°
2026-05-07 12:52 43.09925 -70.68143 38763 ft 542 kts 26°
2026-05-07 12:53 43.16252 -70.62514 38765 ft 542 kts 26°
2026-05-07 12:53 43.22581 -70.56869 38779 ft 542 kts 26°
2026-05-07 12:54 43.28905 -70.51215 38772 ft 542 kts 26°
2026-05-07 12:54 43.35221 -70.45554 38778 ft 542 kts 26°
2026-05-07 12:55 43.41532 -70.39882 38778 ft 542 kts 26°
2026-05-07 12:55 43.47842 -70.34197 38805 ft 542 kts 27°
2026-05-07 12:56 43.54148 -70.28501 38785 ft 542 kts 27°
2026-05-07 12:56 43.60448 -70.22796 38777 ft 542 kts 27°
2026-05-07 12:57 43.66741 -70.17085 38781 ft 541 kts 27°
2026-05-07 12:57 43.73025 -70.11365 38780 ft 540 kts 27°
2026-05-07 12:58 43.79305 -70.05635 38797 ft 540 kts 27°
2026-05-07 12:58 43.85567 -69.99907 38803 ft 539 kts 28°
2026-05-07 12:59 43.91825 -69.94168 38796 ft 539 kts 28°
2026-05-07 12:59 43.98077 -69.88420 38825 ft 539 kts 28°
2026-05-07 13:00 44.04323 -69.82661 38799 ft 539 kts 28°
2026-05-07 13:00 44.10575 -69.76883 38803 ft 539 kts 28°
2026-05-07 13:01 44.16821 -69.71096 38800 ft 539 kts 28°
2026-05-07 13:01 44.23069 -69.65292 38792 ft 539 kts 29°
2026-05-07 13:02 44.29266 -69.59520 38787 ft 539 kts 29°
2026-05-07 13:02 44.35508 -69.53692 38774 ft 540 kts 29°
2026-05-07 13:03 44.41746 -69.47850 38758 ft 540 kts 29°
2026-05-07 13:03 44.47983 -69.41994 38763 ft 539 kts 29°
2026-05-07 13:04 44.54219 -69.36127 38776 ft 540 kts 30°
2026-05-07 13:04 44.60447 -69.30250 38769 ft 540 kts 30°
2026-05-07 13:05 44.66674 -69.24358 38777 ft 540 kts 30°
2026-05-07 13:05 44.72897 -69.18455 38774 ft 539 kts 30°
2026-05-07 13:06 44.79113 -69.12543 38773 ft 539 kts 30°
2026-05-07 13:06 44.85286 -69.06656 38783 ft 539 kts 30°
2026-05-07 13:07 44.91526 -69.00690 38784 ft 539 kts 30°
2026-05-07 13:07 44.97747 -68.94726 38782 ft 539 kts 30°
2026-05-07 13:08 45.03966 -68.88748 38763 ft 540 kts 31°
2026-05-07 13:08 45.10142 -68.82795 38755 ft 541 kts 31°
2026-05-07 13:09 45.16353 -68.76791 38766 ft 540 kts 31°
2026-05-07 13:09 45.22616 -68.70723 38765 ft 542 kts 31°
2026-05-07 13:10 45.28813 -68.64702 38769 ft 544 kts 31°
2026-05-07 13:10 45.35052 -68.58624 38797 ft 544 kts 31°
2026-05-07 13:11 45.41302 -68.52518 38787 ft 546 kts 31°
2026-05-07 13:11 45.47566 -68.46381 38793 ft 546 kts 31°
2026-05-07 13:12 45.53825 -68.40233 38777 ft 547 kts 32°
2026-05-07 13:12 45.60085 -68.34065 38785 ft 546 kts 32°
2026-05-07 13:13 45.66338 -68.27890 38792 ft 546 kts 32°
2026-05-07 13:13 45.72589 -68.21698 38783 ft 547 kts 32°
2026-05-07 13:14 45.78839 -68.15489 38786 ft 547 kts 32°
2026-05-07 13:14 45.85101 -68.09253 38785 ft 547 kts 32°
2026-05-07 13:15 45.91344 -68.03017 38785 ft 547 kts 32°
2026-05-07 13:15 45.97560 -67.96791 38788 ft 548 kts 32°
2026-05-07 13:16 46.03808 -67.90515 38796 ft 548 kts 32°
2026-05-07 13:16 46.10059 -67.84219 38793 ft 548 kts 32°
2026-05-07 13:17 46.16308 -67.77907 38793 ft 548 kts 33°
2026-05-07 13:17 46.22558 -67.71576 38814 ft 549 kts 33°
2026-05-07 13:18 46.28809 -67.65227 38795 ft 549 kts 33°
2026-05-07 13:18 46.35062 -67.58857 38796 ft 550 kts 33°
2026-05-07 13:19 46.41314 -67.52469 38813 ft 550 kts 33°
2026-05-07 13:19 46.47567 -67.46063 38795 ft 550 kts 33°
2026-05-07 13:20 46.53810 -67.39647 38796 ft 550 kts 33°
2026-05-07 13:20 46.60056 -67.33211 38794 ft 550 kts 33°
2026-05-07 13:21 46.66288 -67.26771 38793 ft 550 kts 33°
2026-05-07 13:21 46.72522 -67.20318 38792 ft 550 kts 33°
2026-05-07 13:22 46.78754 -67.13850 38787 ft 550 kts 33°
2026-05-07 13:22 46.84931 -67.07236 38791 ft 551 kts 38°
2026-05-07 13:23 46.90518 -66.99541 38793 ft 553 kts 47°
2026-05-07 13:23 46.95578 -66.91065 38795 ft 553 kts 48°
2026-05-07 13:24 47.00674 -66.82621 38790 ft 553 kts 49°
2026-05-07 13:24 47.05760 -66.74152 38797 ft 554 kts 49°
2026-05-07 13:25 47.10811 -66.65701 38819 ft 555 kts 49°
2026-05-07 13:25 47.15897 -66.57159 38812 ft 556 kts 49°
2026-05-07 13:26 47.20981 -66.48593 38814 ft 556 kts 49°
2026-05-07 13:26 47.26054 -66.40007 38812 ft 556 kts 49°
2026-05-07 13:27 47.31122 -66.31397 38813 ft 556 kts 49°
2026-05-07 13:27 47.36185 -66.22766 38812 ft 556 kts 50°
2026-05-07 13:28 47.41233 -66.14133 38814 ft 555 kts 50°
2026-05-07 13:28 47.46274 -66.05485 38806 ft 555 kts 50°
2026-05-07 13:29 47.51279 -65.96871 38806 ft 555 kts 50°
2026-05-07 13:29 47.56308 -65.88188 38798 ft 555 kts 50°
2026-05-07 13:30 47.61338 -65.79475 38792 ft 557 kts 50°
2026-05-07 13:30 47.66371 -65.70730 38804 ft 559 kts 50°
2026-05-07 13:31 47.71417 -65.61932 38836 ft 559 kts 50°
2026-05-07 13:31 47.76461 -65.53108 38849 ft 560 kts 50°
2026-05-07 13:32 47.81504 -65.44259 38830 ft 561 kts 50°
2026-05-07 13:32 47.86537 -65.35397 38826 ft 560 kts 50°
2026-05-07 13:33 47.91564 -65.26518 38822 ft 560 kts 51°
2026-05-07 13:33 47.96573 -65.17640 38819 ft 560 kts 51°
2026-05-07 13:34 48.04077 -65.04286 38810 ft 559 kts 51°
2026-05-07 13:35 48.09066 -64.95370 38819 ft 559 kts 51°
2026-05-07 13:35 48.14052 -64.86428 38807 ft 560 kts 51°
2026-05-07 13:36 48.19011 -64.77507 38817 ft 561 kts 51°
2026-05-07 13:36 48.24008 -64.68488 38834 ft 562 kts 51°
2026-05-07 13:37 48.28999 -64.59449 38844 ft 563 kts 51°
2026-05-07 13:37 48.33988 -64.50381 38843 ft 563 kts 51°
2026-05-07 13:38 48.38125 -64.42841 38843 ft 563 kts 51°
2026-05-07 13:38 48.43101 -64.33741 38833 ft 563 kts 51°
2026-05-07 13:39 48.48067 -64.24630 38834 ft 562 kts 52°
2026-05-07 13:39 48.53023 -64.15505 38832 ft 562 kts 52°
2026-05-07 13:40 48.57970 -64.06366 38834 ft 562 kts 52°
2026-05-07 13:40 48.62915 -63.97199 38825 ft 563 kts 52°
2026-05-07 13:41 48.67853 -63.88014 38824 ft 563 kts 52°
2026-05-07 13:41 48.72797 -63.78786 38837 ft 564 kts 52°
2026-05-07 13:42 48.77741 -63.69525 38840 ft 566 kts 52°
2026-05-07 13:42 48.82656 -63.60288 38848 ft 566 kts 52°
2026-05-07 13:43 48.87601 -63.50962 38855 ft 567 kts 52°
2026-05-07 13:43 48.92536 -63.41622 38867 ft 567 kts 52°
2026-05-07 13:44 48.97466 -63.32257 38861 ft 567 kts 52°
2026-05-07 13:44 49.02393 -63.22867 38863 ft 566 kts 52°
2026-05-07 13:45 49.07299 -63.13483 38859 ft 566 kts 52°
2026-05-07 13:45 49.12192 -63.04091 38863 ft 565 kts 52°
2026-05-07 13:46 49.17084 -62.94668 38864 ft 565 kts 52°
2026-05-07 13:46 49.21954 -62.85253 38865 ft 565 kts 52°
2026-05-07 13:47 49.26825 -62.75803 38871 ft 565 kts 52°
2026-05-07 13:47 49.31683 -62.66345 38871 ft 565 kts 52°
2026-05-07 13:48 49.36545 -62.56846 38875 ft 565 kts 52°
2026-05-07 13:48 49.41359 -62.47405 38876 ft 565 kts 52°
2026-05-07 13:49 49.46201 -62.37876 38868 ft 566 kts 52°
2026-05-07 13:49 49.51036 -62.28328 38867 ft 566 kts 52°
2026-05-07 13:50 49.55860 -62.18767 38870 ft 566 kts 52°
2026-05-07 13:50 49.60679 -62.09179 38879 ft 566 kts 52°
2026-05-07 13:51 49.65485 -61.99584 38874 ft 565 kts 52°
2026-05-07 13:51 49.70279 -61.89979 38864 ft 565 kts 52°
2026-05-07 13:52 49.75069 -61.80347 38881 ft 564 kts 52°
2026-05-07 13:52 49.79839 -61.70719 38877 ft 563 kts 52°
2026-05-07 13:53 49.84605 -61.61064 39111 ft 565 kts 52°
2026-05-07 13:53 49.86986 -61.56227 39545 ft 562 kts 52°
2026-05-07 13:53 49.89347 -61.51422 39991 ft 558 kts 52°
2026-05-07 13:53 49.91692 -61.46642 40405 ft 555 kts 52°
2026-05-07 13:54 49.93994 -61.41939 40764 ft 553 kts 52°
2026-05-07 13:54 49.96328 -61.37164 40883 ft 557 kts 52°
2026-05-07 13:54 49.98647 -61.32410 40884 ft 549 kts 52°
2026-05-07 13:55 50.03250 -61.22949 40884 ft 549 kts 52°
2026-05-07 13:55 50.07856 -61.13450 40892 ft 549 kts 52°
2026-05-07 13:56 50.12438 -61.03963 40892 ft 549 kts 52°
2026-05-07 13:56 50.17023 -60.94438 40897 ft 549 kts 52°
2026-05-07 13:57 50.21598 -60.84899 40902 ft 549 kts 52°
2026-05-07 13:57 50.26161 -60.75350 40916 ft 549 kts 52°
2026-05-07 13:58 50.30718 -60.65778 40915 ft 548 kts 53°
2026-05-07 13:58 50.35262 -60.56199 40913 ft 548 kts 53°
2026-05-07 13:59 50.39792 -60.46616 40919 ft 547 kts 53°
2026-05-07 13:59 50.44308 -60.37025 40921 ft 546 kts 53°
2026-05-07 14:00 50.48810 -60.27431 40923 ft 546 kts 53°
2026-05-07 14:00 50.53305 -60.17817 40926 ft 545 kts 53°
2026-05-07 14:01 50.57759 -60.08255 40930 ft 545 kts 53°
2026-05-07 14:01 50.62228 -59.98625 40925 ft 545 kts 53°
2026-05-07 14:02 50.66691 -59.88973 40939 ft 544 kts 53°
2026-05-07 14:02 50.71138 -59.79321 40937 ft 544 kts 53°
2026-05-07 14:03 50.75586 -59.69628 40942 ft 544 kts 54°
2026-05-07 14:03 50.80013 -59.59947 40942 ft 544 kts 54°
2026-05-07 14:04 50.84439 -59.50234 40939 ft 544 kts 54°
2026-05-07 14:04 50.88851 -59.40513 40965 ft 543 kts 54°
2026-05-07 14:05 50.93255 -59.30773 40948 ft 544 kts 54°
2026-05-07 14:05 50.97652 -59.21015 40950 ft 544 kts 54°
2026-05-07 14:06 51.02043 -59.11232 40948 ft 544 kts 54°
2026-05-07 14:06 51.06423 -59.01437 40952 ft 544 kts 54°
2026-05-07 14:07 51.10794 -58.91626 40957 ft 543 kts 54°
2026-05-07 14:07 51.15130 -58.81854 40957 ft 543 kts 54°
2026-05-07 14:08 51.19486 -58.72003 40956 ft 543 kts 54°
2026-05-07 14:08 51.23827 -58.62146 40954 ft 543 kts 54°
2026-05-07 14:09 51.28158 -58.52277 40952 ft 542 kts 54°
2026-05-07 14:09 51.32486 -58.42377 40954 ft 542 kts 55°
2026-05-07 14:10 51.36793 -58.32486 40952 ft 542 kts 55°
2026-05-07 14:10 51.41091 -58.22577 40969 ft 541 kts 55°
2026-05-07 14:11 51.45377 -58.12662 40962 ft 540 kts 55°
2026-05-07 14:11 51.49650 -58.02736 40963 ft 540 kts 55°
2026-05-07 14:12 51.53912 -57.92797 40967 ft 540 kts 55°
2026-05-07 14:12 51.58133 -57.82916 40968 ft 540 kts 55°
2026-05-07 14:13 51.62374 -57.72950 40969 ft 542 kts 55°
2026-05-07 14:13 51.66676 -57.62803 40969 ft 555 kts 55°
2026-05-07 14:14 51.71003 -57.52556 40970 ft 549 kts 56°
2026-05-07 14:14 51.75296 -57.42347 40980 ft 551 kts 56°
2026-05-07 14:15 51.79594 -57.32088 40977 ft 551 kts 56°
2026-05-07 14:15 51.83883 -57.21808 40982 ft 551 kts 56°
2026-05-07 14:16 51.88157 -57.11524 40980 ft 550 kts 56°
2026-05-07 14:16 51.92405 -57.01262 40963 ft 548 kts 56°
2026-05-07 14:17 51.96601 -56.91081 40958 ft 546 kts 56°
2026-05-07 14:17 52.00837 -56.80768 40957 ft 546 kts 56°
2026-05-07 14:18 52.05015 -56.70552 40962 ft 546 kts 56°
2026-05-07 14:18 52.09207 -56.60262 40960 ft 546 kts 56°
2026-05-07 14:19 52.13394 -56.49942 40963 ft 547 kts 56°
2026-05-07 14:19 52.17576 -56.39594 40974 ft 547 kts 56°
2026-05-07 14:20 52.21761 -56.29214 40957 ft 548 kts 56°
2026-05-07 14:20 52.25941 -56.18817 40965 ft 548 kts 56°
2026-05-07 14:21 52.30111 -56.08404 40967 ft 548 kts 56°
2026-05-07 14:21 52.34273 -55.97969 40981 ft 548 kts 56°
2026-05-07 14:22 52.38381 -55.87454 40981 ft 547 kts 59°
2026-05-07 14:22 52.42093 -55.76571 40971 ft 547 kts 63°
2026-05-07 14:23 52.45469 -55.65402 40982 ft 545 kts 63°
2026-05-07 14:23 52.48913 -55.54342 40981 ft 544 kts 63°
2026-05-07 14:24 52.51750 -55.45133 40976 ft 543 kts 63°
2026-05-07 14:24 52.55126 -55.34060 40968 ft 542 kts 63°
2026-05-07 14:25 52.59024 -55.21181 40957 ft 541 kts 63°
2026-05-07 14:25 52.61825 -55.11887 40956 ft 540 kts 63°
2026-05-07 14:26 52.65151 -55.00801 40967 ft 540 kts 63°